sat.trackr.live / text

‹ back to catalog

SDA_1670

NORAD 65980 · 2025-230G

PAYLOAD ACTIVE UNKNOWN

§ Identity

Operator
Country
US
Launch date
2025-10-15
Launch site
AFWTR
Launch vehicle
Mass (kg)
RCS (m²)

External: N2YO · Heavens-Above · Gunter

§ Orbital elements

Epoch: 2026-09-20T13:57:44.813088Z

Period
104.49 min
Inclination
81.2976°
Eccentricity
0.0000680
Mean motion
13.78094508 rev/d
Perigee alt
970.2 km
Apogee alt
971.2 km
Semi-major
7,348.8 km
B*
2.3733e-5
RAAN
124.6168°
Arg perigee
63.9972°
Mean anomaly
296.1251°
Rev number
4,692

§ Raw data

SDA_16701 65980U 25230G   26263.58176867  .00000036  00000+0  23733-4 0  99972 65980  81.2976 124.6168 0000680  63.9972 296.1251 13.78094508 46923

JSON: /api/v1/satellites/65980 · /tle

For live sub-satellite position, see the globe view (requires WebGL).

§ Visibility from observer

Set your observer location to see the next 7 days of passes ≥ 10°. The values pass through the URL so the page stays shareable.

No JS? Fill the form by hand. The geolocation button needs JavaScript.